Regional Weather Roundup
Issued by NWS Boston, MA

Home | Current Version | Previous Version | Text Only | Print | Product List | Glossary On
Versions: 1 2 3 4 5 6 7 8 9 10 11 12 13 14 15 16 17 18 19 20 21 22 23 24 25 26 27 28
000
ASUS41 KBOX 252110
RWRBOX

REGIONAL WEATHER ROUNDUP
NATIONAL WEATHER SERVICE TAUNTON MA
500 PM EDT SAT OCT 25 2014

NOTE:  "FAIR" INDICATES FEW OR NO CLOUDS BELOW 12,000 FEET WITH NO
SIGNIFICANT WEATHER AND/OR OBSTRUCTIONS TO VISIBILITY.  THE FOLLOWING
OBSERVATION LOCATIONS DO NOT REPORT PRESENT WEATHER...PROVINCETOWN...
SMITHFIELD...BLOCK ISLAND...KEENE...AND OXFORD.

MAZALL-252200-
EASTERN MASSACHUSETTS

CITY           SKY/WX    TMP DP  RH WIND       PRES   REMARKS
BOSTON         PTCLDY    63  38  39 W10       29.58F
BEVERLY        CLEAR     63  38  39 W7        29.57F
LAWRENCE       CLEAR     62  40  44 SW9       29.58F
BEDFORD        CLEAR     61  42  49 SW6       29.57F
BLUE HILL        N/A     60  42  51 W12       29.59F
NORWOOD        CLEAR     63  41  44 SW8       29.58F
MARSHFIELD     NOT AVBL
PLYMOUTH       PTCLDY    63  42  46 SW8       29.60F
TAUNTON        CLEAR     65  41  41 W9        29.60F
NEW BEDFORD    CLEAR     62  46  55 SW10      29.60F
$$

MAZALL-252200-
CAPE COD AND THE ISLANDS

CITY           SKY/WX    TMP DP  RH WIND       PRES   REMARKS
FALMOUTH       PTCLDY    61  48  63 SW14G21   29.61F
HYANNIS        MOCLDY    61  49  64 SW14      29.60F
CHATHAM        MOCLDY    59  50  72 SW6       29.62F
PROVINCETOWN   CLOUDY    61   5  11 SW13G18   29.59F
NANTUCKET      MOCLDY    59  47  64 W17G24    29.64F
MARTHAS VNYRD  PTCLDY    59  42  53 W10       29.63F
$$

MAZALL-252200-
CENTRAL AND WESTERN MASSACHUSETTS

CITY           SKY/WX    TMP DP  RH WIND       PRES   REMARKS
WORCESTER      CLEAR     58  43  57 W10       29.61F
FITCHBURG      CLEAR     63  42  46 W10       29.60F
ORANGE         MOCLDY    60  45  57 SW5       29.60F
SPRINGFIELD    CLEAR     63  43  47 SW10      29.60F
WESTFIELD      CLEAR     64  41  42 SW12      29.61F
NORTH ADAMS    PTCLDY    59  43  55 W6        29.61F
PITTSFIELD     CLEAR     58  41  53 SW7       29.60F
$$

RIZALL-252200-
RHODE ISLAND

CITY           SKY/WX    TMP DP  RH WIND       PRES   REMARKS
PROVIDENCE     PTCLDY    63  42  46 SW10      29.62F
NEWPORT        CLEAR     60  44  55 SW8G21    29.62F
BLOCK ISLAND   PTCLDY    61  46  59 SW15      29.65F
SMITHFIELD     CLEAR     63  37  39 SW5       29.60F
WESTERLY       PTCLDY    61  46  57 SW9       29.65F
$$

CTZALL-252200-
CONNECTICUT

CITY           SKY/WX    TMP DP  RH WIND       PRES   REMARKS
BRADLEY INTL   PTCLDY    65  41  41 W10       29.61F
HARTFORD       CLEAR     64  41  42 SW12G17   29.62F
BRIDGEPORT     CLEAR     65  49  56 SW12      29.65F
DANBURY        CLEAR     63  41  44 SW8       29.65F
GROTON         PTCLDY    59  49  69 SW14      29.64F
NEW HAVEN      PTCLDY    65  49  56 SW9G17    29.65F
CHESTER        NOT AVBL
MERIDEN        CLEAR     65  40  39 W10       29.63F
WILLIMANTIC    CLEAR     64  41  42 VRB6      29.62F
OXFORD         PTCLDY    61  41  48 VRB6      29.64F
$$

MEZ002-015-021-024-NHZ003-005-008-011-012-014-VTZ005-008-252200-
NORTHERN NEW ENGLAND

CITY           SKY/WX    TMP DP  RH WIND       PRES   REMARKS
PORTLAND ME    PTCLDY    57  42  57 S7        29.56F
BANGOR ME      MOCLDY    54  35  48 S3        29.54F
CONCORD NH     PTCLDY    62  39  42 SW8       29.56F
MANCHESTER NH  MOCLDY    63  39  41 W9        29.56F
NASHUA NH      CLEAR     64  41  43 W5        29.58F
PORTSMOUTH NH  MOCLDY    64  36  36 SW2       29.55F
JAFFREY NH     PTCLDY    58  42  55 SW8G16    29.60F
KEENE NH       PTCLDY    61  39  44 W10       29.61R
BURLINGTON VT  CLOUDY    57  43  59 S9        29.54F
MT. WASHINGTON FOG       32  31  99 W21         N/A  VSB 1/8 WCI  19
$$

NYZ052-076-252200-
EASTERN NEW YORK

CITY           SKY/WX    TMP DP  RH WIND       PRES   REMARKS
ALBANY         MOCLDY    61  45  55 SE5       29.60F
NEW YORK CITY  PTCLDY    67  43  41 SW16      29.65F
$$

ANZALL-252200-
MARINE OBSERVATIONS

STATION/POSITION TIME  TEMP    WIND        PRES    VSBY  WAVE
                       AIR SEA DIR/SP/G                  HT/PER
                 (UTC) (F)     (DEG/KT/KT) (MB)    (MI)  (FT/S)
BOSTON BUOY      NOT AVBL
BUZZARDS BAY     NOT AVBL
NANTUCKET SOUND  NOT AVBL
MASS BAY-STELLWA NOT AVBL
ISLE OF SHOALS   NOT AVBL
S OF BLOCK IS    NOT AVBL
$$

......................KEY.........................
  SKY/WX - SKY CONDITION/PRESENT WEATHER
  TMP    - TEMPERATURE IN FAHRENHEIT
  DWPT   - DEWPOINT IN FAHRENHEIT
  RH     - RELATIVE HUMIDITY IN PERCENT
  WIND   - DIRECTION AND SPEED IN MPH
  PRES   - MEAN SEA LEVEL PRESSURE IN INCHES OF HG
  WCI    - WIND CHILL INDEX
  VSB    - VISIBILITY IN MILES
  HX     - HEAT INDEX
  TC     - TEMPERATURE IN CELSIUS
  VRB    - VARIABLE WIND DIRECTION
  N/A    - NOT AVAILABLE



USA.gov is the U.S. government's official web portal to all federal, state and local government web resources and services.